Windsor Heights, WV

11:23 AM EST on February 06, 2016 (GMT -0500)
Wheeling-Ohio County

Weather History for KHLG - January, 2013

Change the Weather History Date:

Monday, January 7, 2013

  Actual Average Record
Temperature  
Mean Temperature 28 °F 29 °F  
Max Temperature 32 °F 36 °F 66 °F (2008)
Min Temperature 24 °F 22 °F -10 °F (2014)
Degree Days  
Heating Degree Days 37 36  
Month to date heating degree days 261 252  
Since 1 July heating degree days 2287 2377  
Cooling Degree Days 0    
Month to date cooling degree days 0  
Year to date cooling degree days 0  
Moisture  
Dew Point 23 °F    
Average Humidity 74    
Maximum Humidity 85    
Minimum Humidity 63    
Precipitation  
Precipitation 0.00 in 0.10 in 0.42 in (2009)
Month to date precipitation 0.03 0.74  
Sea Level Pressure  
Sea Level Pressure 30.39 in    
Wind  
Wind Speed 7 mph (SW)    
Max Wind Speed 15 mph    
Max Gust Speed 20 mph    
Visibility 5 miles    
Events      
T = Trace of Precipitation, MM = Missing Value Source: NWS Daily Summary

Daily Weather History Graph

Daily Weather History Graph

Search for Another Location

Airport or City:

Trip Planner

Search our weather history database for the weather conditions in past years. The results will help you decide how hot, cold, wet, or windy it might be!

Date:

Astronomy

Jan. 07, 2013 Rise Set
Actual Time 7:45 AM EST 5:13 PM EST
Civil Twilight 7:14 AM EST 5:43 PM EST
Nautical Twilight 6:40 AM EST 6:17 PM EST
Astronomical Twilight 6:08 AM EST 6:50 PM EST
Moon 3:07 AM EST (1/7) 1:23 PM EST (1/7)
Length of Visible Light 10h 28m
Length of Day
9h 28m
Waning Crescent, 23% of the Moon is Illuminated
Jan 7
Waning Crescent
Jan 11
New
Jan 18
First Quarter
Jan 26
Full
Feb 3
Last Quarter

Hourly Weather History & Observations

Time (EST) Temp. Windchill Dew Point Humidity Pressure Visibility Wind Dir Wind Speed Gust Speed Precip Events Conditions
12:53 AM 30.9 °F 22.8 °F 25.0 °F 79% 30.29 in 6.0 mi West 9.2 mph - N/A   Haze
1:53 AM 30.0 °F 21.7 °F 24.1 °F 79% 30.31 in 6.0 mi West 9.2 mph - N/A   Haze
2:53 AM 30.0 °F 21.1 °F 24.1 °F 79% 30.34 in 6.0 mi West 10.4 mph - N/A   Haze
3:53 AM 28.9 °F 21.9 °F 24.1 °F 82% 30.35 in 5.0 mi West 6.9 mph - N/A   Haze
4:43 AM 28.4 °F 20.4 °F 23.0 °F 80% 30.31 in 5.0 mi West 8.1 mph - N/A   Haze
4:53 AM 28.9 °F 21.1 °F 23.0 °F 78% 30.36 in 5.0 mi West 8.1 mph - N/A   Haze
5:21 AM 28.4 °F 22.2 °F 23.0 °F 80% 30.32 in 5.0 mi West 5.8 mph - N/A   Haze
5:53 AM 28.9 °F 21.9 °F 23.0 °F 78% 30.38 in 5.0 mi WSW 6.9 mph - N/A   Haze
6:10 AM 28.4 °F 22.2 °F 23.0 °F 80% 30.34 in 5.0 mi SW 5.8 mph - N/A   Haze
6:53 AM 28.0 °F 20.8 °F 23.0 °F 81% 30.40 in 5.0 mi WSW 6.9 mph - N/A   Haze
7:46 AM 28.4 °F 21.2 °F 24.8 °F 86% 30.38 in 4.0 mi West 6.9 mph - N/A   Overcast
7:53 AM 28.0 °F 20.8 °F 23.0 °F 81% 30.43 in 4.0 mi WSW 6.9 mph - N/A   Haze
8:53 AM 28.9 °F 21.9 °F 24.1 °F 82% 30.46 in 3.0 mi WSW 6.9 mph - N/A   Haze
9:20 AM 28.4 °F 22.2 °F 24.8 °F 86% 30.42 in 3.0 mi SW 5.8 mph - N/A   Haze
9:53 AM 28.9 °F 20.4 °F 24.1 °F 82% 30.48 in 3.0 mi WSW 9.2 mph - N/A   Haze
10:06 AM 28.4 °F 21.2 °F 24.8 °F 86% 30.44 in 3.0 mi WSW 6.9 mph - N/A   Haze
10:53 AM 30.0 °F 24.1 °F 24.1 °F 79% 30.50 in 3.0 mi SW 5.8 mph - N/A   Haze
11:02 AM 30.2 °F 22.6 °F 24.8 °F 80% 30.45 in 3.0 mi WSW 8.1 mph - N/A   Haze
11:53 AM 30.9 °F 24.3 °F 25.0 °F 79% 30.48 in 4.0 mi SSW 6.9 mph - N/A   Haze
12:12 PM 30.2 °F 24.3 °F 24.8 °F 80% 30.42 in 4.0 mi SW 5.8 mph - N/A   Haze
12:53 PM 32.0 °F 27.5 °F 24.1 °F 73% 30.44 in 4.0 mi West 4.6 mph - N/A   Haze
1:13 PM 32.0 °F 25.6 °F 24.8 °F 75% 30.38 in 5.0 mi South 6.9 mph - N/A   Haze
2:53 PM 32.0 °F 24.8 °F 21.9 °F 66% 30.41 in 7.0 mi SW 8.1 mph - N/A   Overcast
3:53 PM 30.9 °F 23.5 °F 23.0 °F 72% 30.41 in 7.0 mi South 8.1 mph - N/A   Overcast
4:53 PM 30.9 °F 23.5 °F 23.0 °F 72% 30.40 in 7.0 mi South 8.1 mph - N/A   Overcast
5:53 PM 28.9 °F 23.9 °F 21.9 °F 75% 30.40 in 8.0 mi South 4.6 mph - N/A   Mostly Cloudy
6:23 PM 28.4 °F 22.2 °F 21.2 °F 74% 30.34 in 8.0 mi South 5.8 mph - N/A   Partly Cloudy
6:53 PM 28.0 °F 21.7 °F 21.0 °F 75% 30.40 in 8.0 mi South 5.8 mph - N/A   Clear
7:53 PM 28.0 °F 22.8 °F 21.0 °F 75% 30.39 in 8.0 mi South 4.6 mph - N/A   Clear
8:53 PM 27.0 °F 18.0 °F 21.0 °F 78% 30.36 in 7.0 mi SSE 9.2 mph - N/A   Clear
9:53 PM 27.0 °F 20.5 °F 21.0 °F 78% 30.36 in 7.0 mi South 5.8 mph - N/A   Clear
10:53 PM 25.0 °F 16.3 °F 19.9 °F 81% 30.33 in 7.0 mi SSE 8.1 mph - N/A   Clear
11:53 PM 25.0 °F 19.3 °F 19.9 °F 81% 30.30 in 7.0 mi ESE 4.6 mph - N/A   Clear